Regional Weather Roundup
Issued by NWS

Home | Current Version | Previous Version | Graphics & Text | Print | Product List | Glossary On
Versions: 1 2 3 4 5 6 7 8 9 10 11 12 13 14 15 16 17 18 19 20 21 22 23 24 25 26 27 28 29 30 31 32 33 34 35 36 37 38 39 40 41 42 43 44 45 46 47 48 49 50
000
ASUS43 KBIS 210110
RWRND

NORTH DAKOTA REGIONAL WEATHER ROUNDUP
NATIONAL WEATHER SERVICE BISMARCK ND
800 PM CDT MON APR 20 2015

NOTE: "FAIR" INDICATES FEW OR NO CLOUDS BELOW 12,000 FEET WITH NO
SIGNIFICANT WEATHER AND/OR OBSTRUCTIONS TO VISIBILITY.


NDZ001>003-009>011-017-210200-
NORTHWEST NORTH DAKOTA

CITY           SKY/WX    TMP DP  RH WIND       PRES   REMARKS
WILLISTON      CLEAR     51  13  21 N13       29.82F
MINOT          CLEAR     47   9  21 NW18G29   29.75S
MINOT AFB      CLEAR     47   9  21 N15G28    29.75R
$$

NDZ018>021-031>035-040>046-210200-
SOUTHWEST NORTH DAKOTA

CITY           SKY/WX    TMP DP  RH WIND       PRES   REMARKS
BISMARCK       CLEAR     49   4  16 NW23G35   29.76S
DICKINSON      CLEAR     47  14  26 N17       29.80S
GARRISON         N/A     48   9  20 NW26G32   29.76R
HETTINGER ARPT MOCLDY    46  14  27 NW17      29.83S
$$

NDZ004>008-012>016-024-026-027-054-210200-
NORTHEAST NORTH DAKOTA

CITY           SKY/WX    TMP DP  RH WIND       PRES   REMARKS
GRAND FORKS    CLOUDY    37  29  72 N20G29    29.63R
GRND FRKS AFB  CLOUDY    37  28  70 N14       29.63S
DEVILS LAKE    CLOUDY    39  27  60 N21G26    29.67S
$$

NDZ022-023-025-028>030-036>039-047>053-210200-
SOUTHEAST NORTH DAKOTA

CITY           SKY/WX    TMP DP  RH WIND       PRES   REMARKS
FARGO          MIX PCPN  37  32  82 N21       29.63S
JAMESTOWN      CLOUDY    42  26  53 N18       29.68R
$$



USA.gov is the U.S. government's official web portal to all federal, state and local government web resources and services.